Location: Piolenc
(44.1794°N, 4.7641°E)
Time: 23:46:29
(UTC+00:00)

USA 308 - Pass Details

Date: 27 January 2021
Orbit: 557 x 589 km, 53.9° (Epoch: 26 February)

Event Time Altitude Azimuth Distance (km) Brightness Sun altitude
Exits shadow 06:28:33 - 282° (WNW) 2,070 5.1 -6.7°
Reaches altitude 10° 06:29:00 10° 285° (WNW) 1,916 4.9 -6.6°
Maximum altitude 06:32:47 28° 345° (NNW) 1,127 4.1 -6.0°
Drops below altitude 10° 06:36:35 10° 44° (NE) 1,922 5.9 -5.3°
Sets 06:39:07 0° 57° (ENE) 2,823 7.0 -4.9°
